Total_Precipitation_Accumulation
1.95 1.63 2.59 2.62 2.36 2.15 2.14 2.29 2.46 2.49 2.51 2.40 2.33 2.18 1.94 1.68 1.55 1.49 1.35 1.33 1.34 1.33 1.30 1.21 1.25 1.30 1.26 1.26 1.34 1.44 1.53 1.49 1.52 1.52 1.35 1.38 1.53 1.49 1.46 1.73 2.39 2.81 2.28
1.29 1.34 2.36 2.49 2.20 2.04 2.00 2.23 2.48 2.58 2.68 2.63 2.39 2.12 1.90 1.62 1.43 1.40 1.38 1.29 1.25 1.22 1.20 1.19 1.26 1.36 1.41 1.39 1.45 1.52 1.45 1.46 1.50 1.55 1.62 1.62 1.58 1.59 1.53 1.68 2.16 2.47 2.04
1.03 1.14 1.78 2.39 2.18 2.09 2.14 2.26 2.39 2.43 2.43 2.34 2.17 1.99 1.87 1.64 1.51 1.47 1.40 1.27 1.13 1.13 1.08 1.10 1.16 1.25 1.35 1.38 1.39 1.37 1.30 1.36 1.44 1.68 2.26 2.78 2.11 1.77 1.71 1.70 1.91 1.92 1.86
1.03 1.08 1.35 2.20 2.24 2.17 2.24 2.29 2.20 2.14 2.06 1.91 1.90 1.88 1.75 1.67 1.56 1.45 1.34 1.23 1.10 1.08 1.08 1.10 1.08 1.12 1.21 1.25 1.30 1.20 1.13 1.27 1.42 1.69 2.23 2.80 2.61 2.21 2.05 1.98 2.02 1.82 1.85
1.01 1.10 1.52 2.27 2.30 2.25 2.20 2.17 2.21 2.03 1.94 1.75 1.65 1.71 1.64 1.61 1.47 1.40 1.33 1.18 1.08 1.10 1.03 1.07 1.10 1.11 1.23 1.25 1.20 1.13 1.10 1.23 1.47 1.38 1.71 2.29 2.83 2.64 2.06 2.05 2.13 1.94 1.93
1.07 1.15 1.53 2.08 2.21 2.24 2.19 2.15 2.06 1.87 1.74 1.66 1.56 1.61 1.62 1.60 1.47 1.36 1.24 1.20 1.12 1.11 1.07 1.08 1.15 1.21 1.29 1.25 1.21 1.24 1.29 1.31 1.26 1.38 1.78 2.24 2.77 2.66 2.13 1.97 1.86 1.97 1.99
1.14 1.13 1.43 1.93 2.05 2.14 2.06 1.88 1.86 1.84 1.69 1.56 1.50 1.48 1.48 1.52 1.47 1.37 1.39 1.36 1.23 1.18 1.18 1.19 1.28 1.24 1.25 1.26 1.31 1.36 1.44 1.28 1.19 1.50 1.66 2.07 2.36 2.43 2.05 1.88 1.90 2.12 2.10
1.19 1.11 1.23 1.69 1.89 1.94 1.89 1.81 1.81 1.78 1.66 1.49 1.38 1.35 1.38 1.40 1.32 1.25 1.29 1.29 1.25 1.24 1.25 1.22 1.23 1.13 1.15 1.26 1.38 1.47 1.54 1.25 1.08 1.28 1.35 1.81 2.45 2.50 2.01 1.88 1.91 2.13 2.29
1.45 1.30 1.21 1.33 1.53 1.69 1.85 1.87 1.91 1.88 1.80 1.66 1.47 1.39 1.39 1.32 1.15 1.11 1.21 1.26 1.29 1.26 1.31 1.33 1.32 1.20 1.18 1.34 1.47 1.56 1.54 1.25 1.21 1.28 1.15 1.82 2.61 2.37 1.93 1.72 1.73 1.91 2.07
1.41 1.37 1.29 1.33 1.41 1.48 1.63 1.87 2.10 2.18 2.23 1.96 1.60 1.49 1.36 1.18 1.11 1.16 1.21 1.30 1.42 1.43 1.48 1.52 1.50 1.38 1.40 1.42 1.48 1.49 1.34 1.09 1.17 1.17 1.45 1.84 2.48 2.37 1.93 1.65 1.62 1.58 1.70
1.02 1.09 1.15 1.22 1.36 1.41 1.47 1.57 1.94 2.16 2.29 1.93 1.47 1.48 1.34 1.11 1.07 1.18 1.23 1.60 1.72 1.74 1.77 1.77 1.69 1.62 1.54 1.46 1.49 1.44 1.11 0.89 1.02 1.27 1.68 2.13 2.49 2.37 1.93 1.71 1.47 1.45 1.48
0.84 0.78 0.80 0.82 0.92 1.11 1.22 1.50 1.81 1.86 1.98 1.65 1.41 1.40 1.34 1.40 1.35 1.12 1.24 1.67 1.87 1.93 1.79 1.72 1.76 1.62 1.37 1.15 1.13 1.11 0.98 0.94 1.04 1.25 1.68 2.42 2.65 2.41 1.98 1.70 1.45 1.40 1.41
0.62 0.61 0.60 0.64 0.67 0.85 1.19 1.50 1.75 1.87 1.95 1.92 1.84 1.61 1.58 1.49 1.30 1.16 1.15 1.25 1.37 1.43 1.35 1.45 1.49 1.30 1.21 1.09 1.07 1.00 0.92 1.04 1.31 1.34 1.78 2.55 2.85 2.60 2.20 1.89 1.59 1.52 1.55
0.65 0.64 0.57 0.50 0.57 0.71 0.91 1.15 1.48 1.68 1.77 1.75 1.68 1.37 1.44 1.47 1.31 1.27 1.35 1.42 1.40 1.38 1.53 1.58 1.56 1.46 1.28 1.07 1.06 1.10 1.04 1.04 1.27 1.42 1.84 2.25 2.74 2.96 2.62 2.23 2.00 1.89 1.83
0.75 0.84 0.77 0.62 0.60 0.70 0.80 0.84 1.02 1.22 1.33 1.59 1.66 1.29 1.18 1.22 1.33 1.35 1.25 1.43 1.51 1.54 1.60 1.66 1.56 1.45 1.45 1.28 1.27 1.27 1.27 1.15 1.23 1.30 1.56 1.84 2.32 2.99 3.15 2.84 2.56 2.32 2.16
0.62 0.72 0.76 0.75 0.77 0.80 0.79 0.73 0.72 0.78 0.96 1.13 1.17 1.03 0.98 1.00 1.17 1.39 1.30 1.29 1.39 1.59 1.70 1.70 1.62 1.66 1.65 1.45 1.40 1.41 1.39 1.34 1.37 1.42 1.55 1.51 1.59 2.12 2.74 3.05 3.06 2.83 2.56
0.52 0.58 0.65 0.71 0.77 0.83 0.91 0.88 0.73 0.74 0.85 0.90 0.89 0.90 0.95 0.94 1.10 1.34 1.29 1.20 1.21 1.37 1.56 1.78 1.84 1.82 1.61 1.52 1.49 1.49 1.40 1.40 1.41 1.58 1.62 1.63 1.51 1.54 1.98 2.39 2.80 2.87 2.86
0.50 0.51 0.56 0.55 0.64 0.76 0.90 0.98 0.94 0.92 0.95 0.89 0.79 0.74 0.78 0.81 0.89 1.15 1.24 1.17 1.16 1.32 1.57 1.82 1.99 2.04 1.86 1.79 1.78 1.69 1.51 1.47 1.42 1.56 1.60 1.68 1.77 1.54 1.50 1.61 1.92 2.27 2.44
0.48 0.49 0.51 0.53 0.56 0.62 0.77 0.87 0.88 0.90 0.95 0.91 0.84 0.77 0.74 0.73 0.83 1.09 1.31 1.35 1.32 1.44 1.56 1.57 1.83 1.97 2.07 1.97 1.78 1.65 1.58 1.60 1.59 1.54 1.68 1.68 1.71 1.64 1.48 1.20 1.24 1.48 1.79
0.46 0.48 0.54 0.55 0.54 0.55 0.60 0.70 0.80 0.79 0.82 0.87 0.82 0.82 0.87 0.93 1.00 1.24 1.50 1.53 1.58 1.62 1.72 1.91 2.20 2.24 2.16 2.14 1.90 1.66 1.53 1.57 1.62 1.71 1.73 1.71 1.73 1.57 1.43 1.26 1.14 1.00 1.23
0.41 0.45 0.51 0.58 0.56 0.51 0.49 0.57 0.65 0.68 0.79 0.90 0.97 1.04 1.04 1.07 1.17 1.41 1.61 1.85 1.96 1.83 1.86 2.09 2.40 2.55 2.35 2.18 2.27 2.12 1.94 1.74 1.71 1.66 1.66 1.72 1.75 1.68 1.55 1.49 1.38 1.25 1.20
0.32 0.36 0.44 0.47 0.45 0.41 0.39 0.46 0.56 0.65 0.75 0.95 1.14 1.35 1.28 1.19 1.24 1.28 1.57 1.77 1.86 1.94 1.97 2.08 2.38 2.73 2.52 2.23 2.44 2.85 2.65 2.42 1.95 1.61 1.72 1.77 1.82 1.76 1.63 1.47 1.47 1.39 1.35
0.28 0.34 0.41 0.43 0.43 0.41 0.47 0.66 0.95 1.23 1.36 1.43 1.48 1.72 1.75 1.62 1.57 1.55 1.61 1.73 1.81 1.96 2.09 2.14 2.19 2.52 2.62 2.41 2.38 2.97 2.97 2.75 2.53 2.03 1.69 1.74 1.86 1.91 1.86 1.73 1.59 1.53 1.44
0.28 0.34 0.40 0.43 0.50 0.51 0.65 0.97 1.40 1.74 1.87 1.85 1.92 2.00 2.10 2.02 1.86 1.88 1.91 1.99 1.91 1.90 2.00 1.99 1.98 2.23 2.58 2.65 2.48 2.32 2.28 2.39 2.74 2.48 1.94 1.78 1.81 1.82 1.91 1.77 1.77 1.79 1.74
0.35 0.42 0.49 0.58 0.73 0.88 0.99 1.17 1.49 1.67 1.76 1.88 2.04 2.28 2.45 2.50 2.43 2.41 2.33 2.17 1.98 1.93 2.00 2.03 2.04 2.16 2.29 2.46 2.43 2.25 2.21 2.17 2.06 2.27 2.25 2.03 1.82 1.70 1.81 1.83 1.81 1.81 1.88
0.50 0.58 0.63 0.80 0.95 0.98 1.08 1.19 1.32 1.41 1.56 1.77 1.96 2.22 2.39 2.43 2.43 2.37 2.20 1.95 1.79 1.75 1.84 1.99 2.00 2.07 2.08 2.17 2.16 2.05 2.06 2.04 1.99 2.15 2.10 2.10 2.06 1.68 1.54 1.61 1.66 1.71 1.69